KD8ZLZ-13 Weather Reports


time (UTC)temp
C
wind
direction
speed
KPH
gust
KPH
rain 1hr
cm
rain 24hr
cm
rain mn
cm
humidity
%
barometer
mb
20260506180042 11 318 6.4 14.5 0.00 0.00 0.00 41 1014.2
20260506175042 11 302 9.7 17.7 0.00 0.00 0.00 42 1014.2
20260506174042 11 285 8.0 16.1 0.00 0.00 0.00 42 1014.2
20260506173042 10 293 8.0 19.3 0.00 0.00 0.00 41 1013.9
20260506172042 11 298 11.3 16.1 0.00 0.00 0.00 39 1013.9
20260506171042 10 289 9.7 16.1 0.00 0.03 0.00 40 1013.9
20260506170042 11 307 9.7 16.1 0.00 0.03 0.00 42 1013.9
20260506165042 11 316 8.0 19.3 0.00 0.03 0.00 42 1013.6
20260506164042 11 276 8.0 14.5 0.00 0.03 0.00 42 1013.6
20260506163042 11 292 8.0 16.1 0.00 0.03 0.00 42 1013.6
20260506162042 11 297 9.7 19.3 0.00 0.03 0.00 41 1013.2
20260506161043 11 293 8.0 17.7 0.00 0.03 0.00 41 1013.2
20260506160042 11 262 9.7 19.3 0.00 0.03 0.00 40 1013.2
20260506155042 11 263 9.7 17.7 0.00 0.03 0.00 41 1013.2
20260506154042 12 280 11.3 20.9 0.00 0.03 0.00 40 1013.2
20260506153042 11 253 9.7 14.5 0.00 0.03 0.00 40 1012.9
20260506152042 11 266 9.7 17.7 0.00 0.03 0.00 40 1012.9
20260506151042 11 257 8.0 12.9 0.00 0.03 0.00 40 1012.9
20260506150042 11 290 8.0 14.5 0.00 0.03 0.00 40 1012.9
20260506145042 11 271 8.0 16.1 0.00 0.03 0.00 40 1012.9
20260506144042 11 296 6.4 20.9 0.00 0.03 0.00 41 1012.9
20260506143042 11 300 6.4 11.3 0.00 0.03 0.00 41 1012.9
20260506142042 11 309 4.8 9.7 0.00 0.03 0.00 41 1012.6
20260506141042 11 316 8.0 14.5 0.00 0.03 0.00 42 1012.6
20260506140042 11 299 6.4 11.3 0.00 0.03 0.00 43 1012.2
20260506135042 10 299 8.0 14.5 0.00 0.03 0.00 43 1012.2
20260506134042 10 333 6.4 16.1 0.00 0.03 0.00 46 1012.2
20260506133042 10 302 6.4 11.3 0.00 0.03 0.00 47 1012.2
20260506132042 10 292 6.4 11.3 0.00 0.03 0.00 49 1012.2
20260506131042 10 286 4.8 9.7 0.00 0.03 0.00 51 1012.2
20260506130042 9 266 4.8 9.7 0.00 0.03 0.00 52 1011.9
20260506125042 9 292 4.8 9.7 0.00 0.03 0.00 53 1011.9
20260506124042 9 309 4.8 8.0 0.00 0.03 0.00 55 1011.5
20260506123042 8 339 3.2 6.4 0.00 0.03 0.00 55 1011.5
20260506122042 8 291 1.6 6.4 0.00 0.03 0.00 57 1011.5
20260506121042 7 317 3.2 6.4 0.00 0.03 0.00 56 1011.5
20260506120042 7 310 3.2 6.4 0.00 0.03 0.00 57 1011.2
20260506115042 7 313 3.2 9.7 0.00 0.03 0.00 56 1011.2
20260506114042 7 279 3.2 9.7 0.00 0.03 0.00 56 1011.2
20260506113042 7 293 3.2 6.4 0.00 0.03 0.00 57 1010.9
20260506112042 7 297 1.6 4.8 0.00 0.03 0.00 57 1010.5
20260506111042 7 275 1.6 6.4 0.00 0.03 0.00 57 1010.5
20260506110042 7 289 1.6 4.8 0.00 0.03 0.00 58 1010.5
20260506105042 7 267 1.6 4.8 0.00 0.03 0.00 57 1010.2
20260506104041 7 263 1.6 4.8 0.00 0.03 0.00 57 1010.2
20260506103042 8 274 3.2 6.4 0.00 0.03 0.00 56 1010.2
20260506102042 8 284 1.6 4.8 0.00 0.03 0.00 57 1010.2
20260506101042 8 297 1.6 4.8 0.00 0.03 0.00 56 1010.2
20260506100042 8 220 1.6 3.2 0.00 0.03 0.00 57 1010.2
20260506095042 8 262 1.6 4.8 0.00 0.03 0.00 55 1009.8
20260506094041 8 261 1.6 3.2 0.00 0.03 0.00 56 1010.2
20260506093042 8 344 1.6 3.2 0.00 0.03 0.00 57 1009.8
20260506092041 8 279 1.6 6.4 0.00 0.03 0.00 56 1009.8
20260506091042 8 307 1.6 4.8 0.00 0.03 0.00 56 1009.8
20260506090041 8 336 1.6 3.2 0.00 0.03 0.00 57 1009.8
20260506085041 8 280 1.6 3.2 0.00 0.03 0.00 56 1009.8
20260506084041 8 301 3.2 6.4 0.00 0.03 0.00 55 1009.5
20260506083041 8 284 3.2 6.4 0.00 0.03 0.00 55 1009.5
20260506082041 8 295 3.2 6.4 0.00 0.03 0.00 56 1009.5
20260506081041 8 312 1.6 6.4 0.00 0.03 0.00 58 1009.8
20260506073041 8 200 0.0 1.6 0.00 0.03 0.00 68 1009.5
20260506072041 8 205 1.6 3.2 0.00 0.03 0.00 71 1009.8
20260506071041 8 194 0.0 1.6 0.00 0.03 0.00 71 1009.8
20260506062041 8 198 1.6 3.2 0.00 0.03 0.00 84 1010.2
20260506061041 8 203 1.6 3.2 0.00 0.03 0.00 85 1009.8
20260506051041 8 203 3.2 4.8 0.00 0.08 0.00 80 1010.2
20260506045041 8 200 1.6 4.8 0.00 0.18 0.00 79 1010.2
20260506044041 8 197 1.6 4.8 0.00 0.18 0.00 77 1009.8
20260506043041 8 201 3.2 6.4 0.00 0.23 0.00 75 1010.2
20260506042041 8 205 3.2 6.4 0.00 0.25 0.00 75 1009.8
20260506041041 8 198 3.2 4.8 0.00 0.25 0.00 77 1009.5
20260506040041 8 191 1.6 3.2 0.00 0.51 0.25 80 1009.5
20260506035041 8 185 0.0 1.6 0.00 0.51 0.25 79 1009.8
20260506034041 8 170 0.0 0.0 0.00 0.51 0.25 77 1009.8
20260506033041 8 176 0.0 0.0 0.00 0.51 0.25 76 1010.2
20260506032041 8 186 0.0 1.6 0.00 0.51 0.25 74 1009.8
20260506031041 8 189 0.0 1.6 0.00 0.51 0.25 71 1009.8
20260506030041 8 195 1.6 3.2 0.00 0.51 0.25 69 1010.2
20260506025041 8 189 1.6 1.6 0.00 0.51 0.25 69 1009.8
20260506024041 8 199 0.0 1.6 0.00 0.51 0.25 76 1009.8
20260506023041 8 187 0.0 1.6 0.00 0.51 0.25 68 1009.8
20260506022041 8 188 1.6 1.6 0.00 0.51 0.25 67 1009.8
20260506021041 9 184 0.0 1.6 0.00 0.51 0.25 65 1009.8
20260506020041 9 194 1.6 3.2 0.00 0.51 0.25 63 1009.5
20260506015041 10 193 0.0 1.6 0.00 0.51 0.25 60 1009.2
20260506014041 10 189 0.0 1.6 0.00 0.51 0.25 62 1009.2
20260506013041 10 188 0.0 1.6 0.00 0.51 0.25 63 1009.2
20260506012041 10 205 1.6 4.8 0.00 0.51 0.25 54 1009.2
20260506011041 11 284 3.2 6.4 0.00 0.51 0.25 51 1009.2
20260506010041 11 222 1.6 4.8 0.00 0.51 0.25 51 1009.2
20260506005041 11 195 1.6 4.8 0.00 0.51 0.25 54 1009.2
20260506004041 11 201 1.6 1.6 0.00 0.51 0.25 52 1009.2
20260506003041 11 218 1.6 3.2 0.00 0.51 0.25 51 1009.2
20260506002041 11 211 1.6 3.2 0.00 0.51 0.25 51 1009.2
20260506001041 11 284 3.2 6.4 0.00 0.51 0.25 47 1008.5
20260506000041 11 263 4.8 6.4 0.00 0.51 0.25 46 1008.5
20260505235041 12 284 3.2 6.4 0.00 0.51 0.25 49 1008.5
20260505234041 12 283 4.8 8.0 0.00 0.51 0.25 50 1008.5
20260505233041 12 256 3.2 8.0 0.00 0.51 0.25 51 1008.5
20260505232041 12 284 3.2 9.7 0.00 0.51 0.25 52 1008.5
20260505231041 12 274 3.2 6.4 0.00 0.51 0.25 53 1008.8
20260505230041 12 267 4.8 8.0 0.00 0.51 0.25 54 1008.5
20260505225041 12 283 4.8 8.0 0.00 0.51 0.25 56 1008.5
20260505224041 12 272 3.2 6.4 0.00 0.51 0.25 59 1008.5
20260505223041 12 286 1.6 6.4 0.00 0.51 0.25 60 1008.5
20260505222041 12 275 3.2 6.4 0.00 0.51 0.25 61 1008.8
20260505221041 12 264 3.2 6.4 0.00 0.51 0.25 61 1008.5
20260505220041 12 218 3.2 6.4 0.00 0.51 0.25 61 1008.5
20260505215041 12 210 1.6 3.2 0.00 0.51 0.25 63 1008.5
20260505214041 12 223 3.2 4.8 0.00 0.51 0.25 64 1008.5
20260505213041 12 213 3.2 6.4 0.00 0.51 0.25 64 1008.5
20260505212041 12 208 3.2 6.4 0.00 0.51 0.25 64 1008.8
20260505211041 12 242 4.8 9.7 0.00 0.51 0.25 62 1008.8
20260505210041 12 246 4.8 9.7 0.00 0.51 0.25 63 1008.8
20260505205041 12 251 4.8 11.3 0.00 0.51 0.25 62 1008.8
20260505204041 12 218 4.8 12.9 0.00 0.51 0.25 63 1008.8
20260505203041 12 213 6.4 14.5 0.00 0.51 0.25 62 1009.2
20260505202041 12 216 4.8 11.3 0.00 0.51 0.25 62 1009.2
20260505201041 12 230 4.8 11.3 0.00 0.51 0.25 61 1009.2
20260505200041 12 252 8.0 14.5 0.00 0.51 0.25 60 1009.2
20260505195041 12 244 6.4 14.5 0.00 0.51 0.25 60 1009.2
20260505194040 12 234 6.4 12.9 0.00 0.51 0.25 60 1009.2